Hourly Data Report for August 05, 2017

PITT MEADOWS CS
BRITISH COLUMBIA

49°12'29.964" N
122°41'24.076" W
5.00 m
1106178
71775
WMM

Download Data

Hourly Data (August 2017)
Hourly Data Report for August 5, 2017
TIME
LST
Temp Definition
°C
Dew Point Definition
°C
Rel Hum Definition
%
Precip. Amount Definition
mm

Wind Dir Definition
10's deg

Wind Spd Definition
km/h
Visibility Definition
km
Stn Press Definition
kPa
Hmdx Definition


Wind Chill Definition


Weather Definition


00:00 16.5 14.4 88 0.0   0   101.02     LegendNANA
01:00 16.6 15.2 91 0.0   0   101.05     LegendNANA
02:00 16.3 15.3 94 0.0   0   101.06     LegendNANA
03:00 15.6 14.5 93 0.0   0   101.08     LegendNANA
04:00 15.7 14.7 94 0.0 10 3   101.10     LegendNANA
05:00 14.9 14.1 95 0.0 0 1   101.13     LegendNANA
06:00 15.6 14.7 94 0.0 0 1   101.18     LegendNANA
07:00 17.1 15.6 91 0.0 9 4   101.21     LegendNANA
08:00 18.5 15.3 82 0.0 11 4   101.26     LegendNANA
09:00 19.9 14.9 73 0.0 17 2   101.28     LegendNANA
10:00 21.1 14.8 68 0.0 19 4   101.30 25   LegendNANA
11:00 22.6 15.2 63 0.0 21 4   101.29 27   LegendNANA
12:00 23.5 14.8 58 0.0 16 5   101.28 27   LegendNANA
13:00 24.2 14.8 56 0.0 16 6   101.25 28   LegendNANA
14:00 25.1 14.9 53 0.0 17 5   101.23 29   LegendNANA
15:00 25.1 14.9 53 0.0 23 4   101.20 29   LegendNANA
16:00 24.5 15.4 57 0.0 23 6   101.17 29   LegendNANA
17:00 24.0 15.3 58 0.0 21 6   101.14 28   LegendNANA
18:00 23.0 15.1 61 0.0 22 4   101.14 27   LegendNANA
19:00 21.8 15.0 65 0.0 19 4   101.16 26   LegendNANA
20:00 19.5 14.7 74 0.0 0 1   101.19     LegendNANA
21:00 17.9 13.9 78 0.0 13 2   101.23     LegendNANA
22:00 17.6 14.9 84 0.0 9 2   101.25     LegendNANA
23:00 17.2 14.4 84 0.0 12 3   101.27     LegendNANA

Notes on Data Quality.

Legend

  • E = Estimated
  • M = Missing
  • NA = Not Available*
  • [empty] = Indicates an unobserved value
Date modified: